Station GTXF1 - Pellicer Creek, Guana Tolomato Matanzas Reserve, FL Image indicating link to RSS feed of recent meteorological observations for station GTXF1


Conditions at GTXF1 as of
(3:45 am EDT)
0745 GMT on 06/17/2024:
     

Click on the graph icon in the table below to see a time series plot of the last five days of that observation.

5-day plot - Wind Direction Wind Direction (WDIR):ESE ( 110 deg true )
5-day plot - Wind Speed Wind Speed (WSPD): 5.1 kts
5-day plot - Atmospheric Pressure Atmospheric Pressure (PRES):30.09 in
5-day plot - Air Temperature Air Temperature (ATMP): 80.1 °F
5-day plot - Dew Point Dew Point (DEWP): 72.3 °F
5-day plot - Heat Index Heat Index (HEAT): 84.0 °F
5-day plot -  Wind Speed, Wind Gust and Atmospheric Pressure Combined plot of Wind Speed, Gust, and Air Pressure
Previous observations
TIME
(EDT)
5-day plot - Wind Direction
WDIR
 
5-day plot - Wind Speed
WSPD
kts
5-day plot - Wind Gust
GST
kts
5-day plot - Wave Height
WVHT
ft
5-day plot - Dominant Wave Period
DPD
sec
5-day plot - Average Wave Period
APD
sec
5-day plot - Mean Wave Direction
MWD
 
5-day plot - Atmospheric Pressure
PRES
in
5-day plot - Pressure Tendency
PTDY
in
5-day plot - Air Temperature
ATMP
°F
5-day plot - Water Temperature
WTMP
°F
5-day plot - Dew Point
DEWP
°F
5-day plot - Salinity
SAL
psu
5-day plot - Visibility
VIS
nmi
5-day plot - Tide (above MLLW)
TIDE
ft
2024-06-17 03:30 amESE 5.1-----30.09- 80.2- 72.1---
2024-06-17 03:15 amESE 5.1-----30.09- 80.2- 71.8---
2024-06-17 03:00 amESE 5.1-----30.09-0.03 80.2- 72.1---
2024-06-17 02:45 amESE 6.0-----30.09- 80.2- 71.8---
2024-06-17 02:30 amESE 5.1-----30.12- 80.4- 72.3---
2024-06-17 02:15 amESE 5.1-----30.12- 80.4- 72.3---
2024-06-17 02:00 amESE 6.0-----30.12+0.00 80.6- 73.2---
2024-06-17 01:45 amESE 5.1-----30.12- 80.8- 73.4---
2024-06-17 01:30 amESE 6.0-----30.12- 80.8- 73.0---
2024-06-17 01:15 amESE 6.0-----30.12- 80.8- 72.7---
2024-06-17 01:00 amESE 6.0-----30.12+0.03 80.8- 72.7---
2024-06-17 12:45 amESE 7.0-----30.12- 80.8- 72.3---
2024-06-17 12:30 amESE 6.0-----30.12- 80.8- 72.7---
2024-06-17 12:15 amESE 7.0-----30.12- 80.8- 73.0---
2024-06-17 12:00 amESE 6.0-----30.12+0.03 81.0- 73.6---
2024-06-16 11:45 pmESE 7.0-----30.12- 81.3- 73.9---
2024-06-16 11:30 pmESE 7.0-----30.12- 81.3- 73.6---
2024-06-16 11:15 pmESE 7.0-----30.12- 81.1- 73.4---
2024-06-16 11:00 pmESE 7.0-----30.12+0.03 81.3- 73.9---
2024-06-16 10:45 pmESE 7.0-----30.12- 81.5- 73.4---
2024-06-16 10:30 pmESE 8.0-----30.12- 81.5- 73.4---
2024-06-16 10:15 pmESE 7.0-----30.09- 81.5- 73.8---
2024-06-16 10:00 pmESE 7.0-----30.09+0.00 81.5- 73.4---
2024-06-16 09:45 pmESE 8.0-----30.09- 81.9- 73.8---
2024-06-16 09:30 pmESE 8.0-----30.09- 81.9- 74.1---
2024-06-16 09:15 pmESE 8.0-----30.09- 82.2- 74.5---
2024-06-16 09:00 pmESE 8.0-----30.09+0.00 82.4- 74.7---
2024-06-16 08:45 pmESE 7.0-----30.09- 82.4- 74.3---
2024-06-16 08:30 pmESE 7.0-----30.09- 82.6- 74.5---
2024-06-16 08:15 pm E 7.0-----30.09- 82.9- 74.8---
2024-06-16 08:00 pm E 8.0-----30.09+0.03 83.3- 75.2---
2024-06-16 07:45 pmESE 7.0-----30.09- 83.5- 74.5---
2024-06-16 07:30 pmESE 7.0-----30.09- 83.7- 74.7---
2024-06-16 07:15 pmESE 7.0-----30.09- 84.4- 75.0---
2024-06-16 07:00 pmESE 7.0-----30.09+0.00 84.7- 75.0---
2024-06-16 06:45 pmESE 7.0-----30.09- 84.4- 74.7---
2024-06-16 06:30 pm E 8.0-----30.09- 84.4- 75.0---
2024-06-16 06:15 pm E 8.0-----30.09- 83.8- 75.4---
2024-06-16 06:00 pm E 8.0-----30.09+0.00 84.4- 75.7---
2024-06-16 05:45 pm E 8.0-----30.06- 85.1- 75.4---
2024-06-16 05:30 pm E 8.0-----30.06- 85.8- 75.6---
2024-06-16 05:15 pm E 7.0-----30.06- 85.3- 75.0---
2024-06-16 05:00 pmESE 8.0-----30.06-0.03 84.9- 74.7---
2024-06-16 04:45 pmESE 8.0-----30.09- 85.3- 74.7---
2024-06-16 04:30 pm E 8.0-----30.09- 86.4- 75.2---
2024-06-16 04:15 pm E 8.9-----30.09- 85.8- 75.2---
2024-06-16 04:00 pm E 8.0-----30.09-0.03 86.2- 75.6---
2024-06-16 03:45 pm E 8.0-----30.09- 85.1- 75.4---
2024-06-16 03:30 pm E 8.0-----30.09- 86.2- 75.9---
2024-06-16 03:15 pm E 8.0-----30.09- 86.5- 75.9---
2024-06-16 03:00 pm E 8.0-----30.09-0.03 86.0- 75.7---
2024-06-16 02:45 pm E 8.9-----30.09- 85.8- 75.6---
2024-06-16 02:30 pm E 7.0-----30.09- 85.5- 75.7---
2024-06-16 02:15 pm E 7.0-----30.09- 84.7- 75.7---
2024-06-16 02:00 pm E 7.0-----30.09-0.03 85.1- 75.7---
2024-06-16 01:45 pm E 8.0-----30.12- 85.3- 75.9---
2024-06-16 01:30 pm E 8.0-----30.12- 85.6- 75.9---
2024-06-16 01:15 pm E 7.0-----30.12- 86.0- 75.7---
2024-06-16 01:00 pm E 7.0-----30.12+0.03 85.8- 76.1---
2024-06-16 12:45 pm E 7.0-----30.12- 85.5- 75.7---
2024-06-16 12:30 pm E 7.0-----30.12- 85.5- 75.7---
2024-06-16 12:15 pm E 7.0-----30.12- 85.3- 76.3---
2024-06-16 12:00 pm E 6.0-----30.12+0.03 85.3- 75.9---
2024-06-16 11:45 am E 5.1-----30.12- 84.9- 76.3---
2024-06-16 11:30 am E 6.0-----30.12- 85.5- 76.5---
2024-06-16 11:15 amENE 5.1-----30.12- 85.5- 76.5---
2024-06-16 11:00 am E 5.1-----30.12+0.03 85.3- 76.3---
2024-06-16 10:45 am E 4.1-----30.12- 84.4- 76.3---
2024-06-16 10:30 am E 4.1-----30.09- 84.4- 76.3---
2024-06-16 10:15 amENE 4.1-----30.12- 84.6- 76.5---
2024-06-16 10:00 am E 4.1-----30.09+0.03 84.6- 76.5---
2024-06-16 09:45 am E 2.9-----30.09- 84.6- 76.5---
2024-06-16 09:30 amENE 2.9-----30.09- 83.8- 76.5---
2024-06-16 09:15 amNNE 2.9-----30.09- 83.3- 76.3---
2024-06-16 09:00 am NE 1.9-----30.09+0.03 83.7- 76.3---
2024-06-16 08:45 am NE 1.0-----30.09- 83.3- 75.9---
2024-06-16 08:30 amWSW 1.0-----30.09- 81.9- 75.6---
2024-06-16 08:15 amWSW 1.9-----30.09- 80.2- 75.4---
2024-06-16 08:00 am W 1.0-----30.09+0.06 78.6- 75.6---
2024-06-16 07:45 am NW 1.9-----30.06- 76.8- 74.3---
2024-06-16 07:30 amWNW 1.0-----30.06- 75.7- 73.6---
2024-06-16 07:15 am W 1.0-----30.06- 74.7- 72.9---
2024-06-16 07:00 am W 1.9-----30.06+0.03 73.6- 72.1---
2024-06-16 06:45 amWSW 1.9-----30.06- 73.0- 71.2---
2024-06-16 06:30 amWSW 1.0-----30.06- 73.4- 71.6---
2024-06-16 06:15 am W 1.0-----30.06- 73.6- 71.8---
2024-06-16 06:00 am- 0.0-----30.06+0.03 73.2- 71.4---
2024-06-16 05:45 am- 0.0-----30.06- 73.2- 71.1---
2024-06-16 05:30 am- 0.0-----30.06- 73.6- 71.4---
2024-06-16 05:15 am- 0.0-----30.03- 73.6- 71.4---
2024-06-16 05:00 amWSW 1.0-----30.03+0.00 73.9- 71.8---